Theta_e
310 310 310 310 310 310 310 310 310 310 310 310 310 311 311 312 312 312 312 313 313 314 314 314 314 314 315 315 315 315 315 315 315 315 315 315 315 314 313 314 315 316 315 315 316 316 316 316 315 315 315 316 316 317 316 318 318 319 325 324 321 324 323 322 324 317 316 321 317 314 313 313 315 315 314 315 315 315 316 315 316 316 316 317 317 317 317 316
309 310 310 310 310 310 310 310 310 310 310 310 310 311 311 312 312 312 313 313 313 314 314 314 314 314 314 315 315 315 315 315 315 315 315 315 316 315 314 314 314 315 315 315 315 315 315 315 315 314 315 316 316 317 317 317 318 322 324 321 323 328 321 316 317 313 313 317 314 314 314 312 314 314 313 314 315 314 315 315 314 315 316 316 316 316 316 316
309 310 310 310 310 310 310 310 310 310 310 310 310 310 311 311 312 312 312 313 313 313 314 314 314 314 314 314 314 314 314 314 314 315 315 314 316 316 315 314 314 314 314 315 315 315 315 314 315 315 315 316 316 317 317 317 318 319 319 323 329 324 314 312 314 313 314 315 312 313 314 312 314 314 312 313 314 314 314 315 314 315 316 316 316 316 316 316
309 310 310 310 310 310 310 310 310 310 310 310 310 310 310 311 311 311 312 312 313 313 313 314 314 314 314 314 314 314 314 314 315 316 316 314 315 316 315 315 315 314 314 315 315 315 314 314 314 314 315 315 314 316 317 317 319 317 317 327 327 315 314 317 315 316 315 314 312 312 313 313 314 314 312 312 313 315 315 315 315 315 316 316 316 316 315 315
309 310 310 310 310 310 310 310 310 310 310 310 310 310 310 311 311 311 311 312 312 312 313 313 314 313 313 314 313 313 313 316 317 316 316 314 314 316 316 315 314 315 314 315 315 315 315 314 314 314 314 314 314 316 317 316 317 317 318 321 318 313 316 318 315 317 316 314 313 312 313 314 314 313 313 313 314 316 316 316 316 316 316 316 315 315 315 315
310 310 310 310 310 310 310 310 310 310 310 311 311 311 311 311 311 311 311 311 312 312 312 312 313 313 313 313 313 313 313 315 316 314 315 314 314 315 316 315 314 315 314 315 315 315 315 314 314 314 313 313 314 316 316 316 316 318 318 316 316 316 316 317 316 317 315 314 313 313 315 314 312 314 314 312 314 316 316 316 316 315 315 315 315 315 315 315
310 310 311 310 311 311 311 311 311 311 311 311 311 311 311 311 311 311 311 311 311 312 312 312 312 312 312 312 312 313 313 314 314 314 315 314 315 315 315 315 315 315 314 315 315 315 315 314 314 314 314 314 314 315 315 315 314 318 319 315 315 316 315 316 316 315 316 315 314 315 315 313 313 315 315 312 313 315 315 316 315 315 315 314 315 315 315 315
312 312 312 312 312 312 312 312 312 312 312 312 312 312 312 312 312 312 312 312 312 312 312 312 312 312 312 312 312 312 313 314 315 315 315 315 315 315 315 315 315 315 314 315 315 315 315 314 314 314 314 315 314 313 313 313 314 317 319 315 314 315 315 316 315 314 315 314 315 314 313 314 314 314 313 313 314 315 315 315 315 315 314 314 315 315 315 314
313 313 313 313 313 313 313 313 313 313 313 313 314 313 314 314 314 314 314 314 314 314 314 314 313 313 313 313 313 312 313 315 315 315 315 315 315 315 315 315 315 315 314 315 315 315 315 314 314 314 314 314 313 313 312 314 315 315 316 314 313 314 314 314 314 313 313 314 313 312 312 313 313 312 312 314 315 315 315 315 315 314 314 314 314 314 314 313
317 317 316 316 316 316 316 315 315 315 314 315 315 315 315 315 315 315 315 315 315 315 315 314 314 315 314 314 313 312 315 316 315 316 316 315 316 315 315 315 315 315 314 314 315 315 315 315 314 314 314 313 313 312 312 314 315 313 312 312 312 312 312 311 311 312 312 312 311 311 313 312 311 311 312 314 314 314 314 314 314 314 314 314 314 314 314 314
319 319 319 319 319 319 319 319 318 318 318 318 318 318 318 318 318 318 317 317 317 316 315 314 313 312 313 313 312 312 315 316 315 315 315 315 315 315 315 314 314 314 314 314 314 315 314 314 313 313 314 313 312 312 311 312 313 312 311 312 312 310 311 310 310 311 311 311 311 310 311 310 310 310 313 314 314 313 313 314 314 314 314 314 314 315 315 315
318 318 318 319 319 319 319 320 320 320 320 321 321 322 322 323 323 323 323 322 322 321 319 317 315 313 311 311 312 313 315 314 314 315 315 315 315 315 314 314 314 314 314 314 314 314 314 314 313 313 313 312 312 311 311 312 311 311 311 313 313 311 311 311 311 310 309 310 310 309 310 313 312 312 314 313 314 313 312 313 313 314 314 314 315 314 315 315
313 313 314 314 315 315 316 316 316 317 317 317 318 319 319 321 321 322 323 323 324 324 324 323 320 318 314 313 314 314 314 313 313 314 314 314 314 314 314 313 313 313 314 314 314 314 313 313 311 312 312 311 312 311 311 310 310 312 311 312 313 313 313 311 309 309 308 310 310 309 312 317 315 312 313 313 313 312 311 312 313 314 314 314 314 314 314 314
311 312 311 312 312 312 312 312 313 313 313 313 314 314 314 315 315 316 316 317 318 319 320 322 322 321 317 317 319 318 316 315 314 313 313 313 312 313 313 313 313 313 313 313 314 313 313 311 310 311 311 311 312 311 312 310 312 314 310 311 313 312 316 314 308 307 309 310 309 310 312 314 313 311 313 313 312 311 310 312 312 313 313 313 313 313 313 314
312 313 313 313 313 313 313 313 313 313 314 313 313 314 313 314 314 314 314 314 314 314 314 315 317 318 317 319 321 320 319 318 316 315 313 313 312 312 312 312 312 313 313 313 314 313 312 311 310 311 311 312 312 312 315 316 321 320 311 315 316 312 317 316 308 307 311 311 307 310 313 312 311 312 313 312 311 311 310 311 311 312 312 312 312 313 313 314
315 315 315 315 315 315 316 316 316 316 316 315 315 315 314 314 314 313 314 313 313 313 312 311 312 314 315 317 318 318 318 318 317 316 315 314 313 313 312 312 313 313 313 313 313 312 312 312 311 311 311 311 312 314 316 316 323 321 312 314 317 313 314 313 310 308 307 309 308 309 312 312 311 311 313 312 311 310 310 310 310 311 311 312 312 312 313 313
315 315 315 316 316 316 317 318 318 318 318 317 316 316 315 314 314 313 313 313 313 312 311 311 311 312 314 315 315 315 316 316 316 316 315 314 313 313 313 313 313 313 313 313 313 312 312 312 311 313 312 311 313 316 316 313 317 318 313 314 315 314 312 312 314 309 305 308 310 309 309 310 311 310 311 311 310 309 309 309 310 310 311 311 312 312 312 312
318 318 317 316 316 316 316 316 317 317 318 318 317 317 316 315 314 313 314 313 313 312 311 311 311 312 315 315 314 315 315 315 315 315 314 314 313 313 314 314 313 313 312 312 312 312 312 311 311 316 315 311 312 315 316 315 315 316 316 315 313 313 312 312 313 311 309 310 310 309 308 308 309 308 308 310 310 309 308 309 309 310 310 310 311 311 312 312
322 322 322 321 321 320 319 318 317 317 317 317 318 318 316 314 314 313 314 314 313 314 315 313 312 315 318 316 314 315 315 315 315 314 314 314 314 313 314 314 313 313 312 312 313 310 311 311 311 315 315 313 313 313 314 314 314 313 313 313 313 312 311 311 311 309 309 310 309 309 309 309 309 309 308 309 310 309 308 309 309 309 310 310 310 311 312 312
324 324 324 324 324 323 323 323 321 320 320 319 319 319 317 315 315 314 313 314 315 316 316 315 314 314 315 315 314 315 314 314 314 314 314 314 314 313 313 313 312 312 311 315 316 309 309 313 314 316 315 313 313 311 311 312 311 311 311 312 312 311 310 310 310 309 307 308 310 310 310 310 309 309 309 309 309 309 309 309 309 309 310 310 310 311 312 312
324 324 324 324 325 324 325 325 324 324 323 321 321 321 319 315 315 316 315 317 319 319 318 318 316 315 316 316 314 314 313 314 314 314 314 313 313 313 313 312 312 313 311 312 313 309 309 314 315 315 313 312 313 312 310 311 311 311 312 312 311 310 311 310 310 310 307 308 310 311 310 309 309 310 309 309 309 309 310 309 309 310 310 311 311 311 312 312
324 324 325 325 325 325 325 325 325 325 324 323 323 323 321 317 317 316 314 315 319 321 321 321 320 318 320 319 315 314 313 313 313 313 313 313 313 313 313 313 315 317 312 309 312 312 312 314 313 312 310 310 313 313 311 311 312 312 312 311 311 311 311 310 310 311 309 308 311 311 309 309 309 309 309 310 310 309 310 310 310 310 310 311 312 311 311 313
324 324 324 325 325 324 324 324 323 323 323 323 323 323 322 320 318 316 314 313 316 321 322 321 320 319 320 319 317 314 311 312 312 312 313 313 313 313 312 313 316 317 315 313 315 315 316 317 313 309 308 310 312 311 311 312 311 312 312 311 312 311 311 311 312 314 311 309 310 310 309 309 309 309 310 309 308 309 310 310 311 311 310 311 311 311 312 313
323 323 323 325 324 324 324 324 322 322 323 323 323 323 322 321 320 317 315 313 314 318 320 319 317 316 318 316 315 314 311 311 312 311 313 313 313 313 311 312 315 316 314 313 314 314 317 315 309 308 310 310 311 311 311 312 311 312 313 312 312 312 311 311 312 313 311 312 311 309 311 313 312 313 316 313 309 309 309 310 312 312 310 310 311 312 313 312
323 322 323 324 324 324 324 323 322 322 322 322 323 322 322 321 319 317 314 316 319 318 316 316 314 314 314 313 313 313 311 311 311 311 312 312 313 313 311 311 313 316 315 312 312 312 314 311 307 311 313 310 311 313 313 314 312 312 315 313 311 312 312 312 312 310 312 316 313 310 314 316 314 316 322 321 317 314 312 311 312 310 310 311 312 314 314 312
324 323 323 323 322 321 322 322 322 322 322 322 322 321 322 321 319 317 314 319 324 320 315 313 313 312 311 311 311 311 313 313 311 310 311 312 312 312 312 311 310 314 315 312 311 312 313 310 308 313 315 312 313 314 315 313 311 312 316 316 313 311 312 313 311 311 315 316 311 312 316 316 314 316 319 317 315 316 315 313 311 309 311 312 313 314 313 311
323 323 322 321 321 321 323 323 323 323 323 323 322 321 322 321 319 315 315 322 326 319 314 313 311 311 310 309 310 310 314 315 311 310 311 312 312 310 313 312 309 310 309 309 313 314 313 311 310 313 315 315 314 314 314 311 312 315 315 316 316 314 313 313 311 312 314 313 311 312 314 314 315 315 315 314 314 317 316 315 312 309 311 313 314 314 311 310
323 322 322 321 321 323 324 323 323 324 323 323 322 322 321 321 319 315 320 328 327 317 313 312 310 311 310 309 309 309 310 310 310 311 310 311 312 310 312 312 312 313 307 308 317 313 310 313 314 314 315 315 314 315 315 311 313 316 311 310 313 313 314 313 312 313 312 311 313 312 311 315 318 314 313 313 315 319 318 320 318 310 309 313 314 313 310 310
322 322 322 322 321 322 323 323 322 322 323 322 322 322 322 321 317 315 322 327 323 316 313 311 311 311 310 309 309 308 308 308 309 310 310 311 311 309 311 309 309 313 308 308 316 312 309 311 311 315 317 315 317 317 315 314 314 311 307 310 313 312 312 312 312 314 315 314 314 313 313 316 319 317 315 313 315 320 321 321 319 311 310 313 313 312 310 309
320 320 320 320 320 321 322 323 322 321 322 321 322 323 322 321 318 319 324 323 319 317 312 310 311 309 309 311 311 308 308 309 308 310 310 310 311 309 310 308 307 312 312 309 314 311 308 306 306 311 313 312 315 311 307 310 309 306 309 315 316 314 312 313 314 315 315 317 316 315 314 314 317 318 317 316 316 318 319 317 316 311 311 314 313 310 310 310
317 317 317 318 319 320 321 322 321 321 322 321 322 322 321 322 321 323 325 319 316 318 313 310 311 310 312 313 313 311 309 308 307 310 311 310 311 309 309 310 309 315 317 313 314 311 307 307 308 310 309 307 312 309 304 304 304 308 317 316 314 316 315 316 318 315 315 320 317 314 312 312 317 317 315 318 317 315 314 314 315 311 310 312 311 309 310 310
316 316 315 316 317 318 319 320 320 320 321 322 322 321 320 322 322 323 323 320 320 320 315 313 312 313 314 313 315 315 311 310 307 309 313 313 313 313 313 316 315 318 323 320 319 317 313 313 310 309 308 306 310 312 309 307 306 310 315 312 312 317 317 318 320 316 317 320 314 309 310 311 314 314 313 315 316 314 311 310 312 310 308 310 310 309 309 309
316 315 315 315 315 316 317 319 320 320 321 322 321 319 320 322 322 322 324 323 320 318 315 315 313 313 313 314 319 317 311 313 311 308 312 311 312 315 317 317 315 316 322 319 319 321 321 316 309 308 310 308 310 313 313 313 311 309 311 313 315 317 317 321 322 317 317 319 312 308 311 313 314 315 316 315 313 312 310 307 309 308 307 308 309 309 309 309
316 316 315 315 314 315 315 318 321 321 321 321 319 319 321 322 321 322 325 324 321 320 318 316 316 315 314 315 321 318 313 317 314 309 312 311 312 319 321 316 311 312 316 315 316 320 321 321 317 315 314 310 309 311 316 318 311 308 312 314 315 319 322 323 323 321 321 320 312 307 312 318 317 317 317 311 308 308 308 307 308 306 306 307 308 309 309 309
313 314 315 315 315 315 314 317 320 321 320 319 318 321 322 320 320 321 323 324 324 324 319 316 317 319 320 319 320 317 314 320 317 311 313 314 316 322 324 321 315 312 314 316 318 318 316 322 321 313 309 310 309 309 313 318 314 309 312 314 314 320 324 321 320 321 320 318 314 311 314 317 315 314 313 309 307 307 306 306 306 306 306 308 309 307 306 306
311 311 312 313 314 314 314 315 318 319 319 318 319 321 321 319 321 322 321 319 321 322 320 319 319 322 324 324 322 317 313 316 317 313 315 316 317 319 321 323 317 311 313 318 320 318 316 322 318 308 306 309 308 308 308 314 316 311 310 313 314 315 318 318 319 319 317 317 317 316 317 315 313 315 314 312 313 311 309 307 304 304 307 307 306 304 302 303
310 310 310 311 311 313 314 314 316 319 318 318 319 321 320 318 320 322 320 316 316 318 319 320 320 322 325 324 322 318 313 315 316 315 318 317 316 318 319 318 314 310 312 316 319 320 318 319 317 312 312 309 303 305 306 306 311 314 314 314 312 311 313 315 317 318 316 316 318 318 318 316 316 320 317 314 316 315 313 310 304 303 306 305 302 300 299 299
309 309 309 310 310 311 313 313 315 318 317 316 319 320 320 318 316 316 317 315 315 317 319 320 320 321 323 323 322 318 315 317 316 315 319 319 316 318 318 315 311 309 309 310 315 319 316 317 318 315 314 310 304 308 311 306 306 310 312 311 312 314 315 314 316 317 316 316 318 318 318 316 315 318 317 316 316 313 312 310 305 303 303 300 299 298 296 297
308 308 308 309 309 310 312 313 316 317 316 317 319 319 319 319 316 315 316 315 316 318 319 320 320 319 321 321 321 319 316 317 317 315 317 319 317 315 314 314 312 307 306 307 313 318 316 316 319 315 312 311 310 311 316 314 308 306 307 309 311 314 315 315 316 317 317 316 317 318 318 316 317 318 316 317 315 309 309 308 303 301 299 297 297 296 295 296
305 307 308 310 311 310 311 313 316 316 317 317 318 317 317 317 316 315 316 316 316 317 318 320 320 318 319 319 319 319 318 317 318 317 317 318 319 317 313 313 313 310 306 306 310 313 315 316 316 315 313 313 312 314 317 317 314 310 310 311 310 311 314 315 314 315 316 314 315 318 316 317 324 323 317 316 311 305 306 305 300 298 297 296 296 295 295 295
303 306 309 310 312 311 311 314 316 315 317 317 316 316 316 315 315 314 315 316 315 315 316 319 320 318 318 319 319 319 319 319 320 318 318 319 319 318 315 311 311 313 310 310 312 313 315 317 316 316 316 314 315 317 316 315 316 315 313 313 311 311 314 314 313 315 316 314 314 316 315 318 326 325 317 313 306 301 303 301 297 297 296 295 295 294 294 294
304 307 309 311 312 312 312 315 316 315 316 317 316 315 315 315 315 314 314 314 314 314 314 316 317 317 317 317 317 317 317 318 319 318 318 319 318 316 314 310 310 312 312 316 318 315 314 316 315 315 315 315 316 316 312 311 314 315 313 313 314 313 312 314 315 316 317 315 314 315 315 318 323 323 315 308 301 299 300 298 297 297 295 295 295 295 295 295
304 307 309 311 311 312 313 315 316 315 315 315 315 315 314 314 315 314 313 313 314 314 315 315 314 315 316 315 315 316 316 316 316 317 318 318 317 313 310 310 311 312 314 318 318 313 311 313 314 315 315 316 318 316 311 309 311 312 313 313 313 313 313 314 313 314 315 315 315 316 317 316 318 319 312 303 299 299 298 297 297 296 295 294 294 295 295 295
302 305 308 312 312 311 313 314 314 315 315 314 314 314 314 314 314 314 313 314 315 314 315 315 313 314 315 313 314 315 315 315 315 315 316 316 315 310 307 309 312 312 313 315 314 311 311 313 314 314 315 315 316 316 314 312 312 314 315 314 312 312 313 313 311 311 312 314 315 315 315 315 317 318 314 305 301 299 297 296 295 294 294 293 293 293 293 293
300 302 305 310 313 312 312 312 312 313 314 314 314 314 314 314 314 314 313 313 313 313 313 314 312 312 312 311 313 313 312 313 314 313 313 314 312 308 304 306 308 308 308 309 308 309 311 313 313 313 314 314 313 313 313 312 312 312 313 313 312 312 313 313 312 313 314 314 314 314 314 314 314 315 315 310 303 299 297 295 294 293 293 292 292 291 291 291
300 303 303 305 309 309 309 310 310 312 312 312 313 313 313 313 313 312 313 313 312 312 312 312 311 311 312 312 312 313 312 312 312 312 312 313 314 308 303 304 305 305 306 306 305 308 310 311 312 313 313 313 312 312 311 311 311 311 311 311 311 311 311 311 311 312 313 313 313 312 312 313 312 312 313 309 303 299 297 295 294 293 292 292 291 291 290 290
299 304 304 303 305 304 305 307 308 309 310 310 312 312 311 312 311 311 312 312 311 311 311 311 311 312 312 312 312 312 312 312 311 311 311 311 312 309 304 303 304 303 305 304 303 307 310 309 311 311 311 311 311 311 310 310 310 310 310 310 310 311 310 310 311 311 311 311 312 312 312 311 311 311 311 306 300 297 295 294 293 293 292 291 291 290 290 290
298 299 299 301 303 303 304 305 304 305 307 307 309 311 311 311 310 310 311 309 309 310 310 310 311 311 311 312 311 311 311 311 311 311 311 309 309 309 307 305 301 300 302 302 301 306 308 307 308 309 308 308 308 308 308 307 307 307 308 308 308 308 308 309 309 309 309 309 309 310 309 309 309 308 304 299 297 297 295 294 293 293 292 291 290 290 290 290
296 296 296 298 300 300 300 301 300 301 305 306 307 309 309 309 309 309 309 308 308 309 310 310 311 311 311 310 309 309 309 310 309 309 310 310 307 307 308 306 302 299 299 300 301 302 304 305 306 306 305 304 304 304 304 304 303 303 303 304 305 305 306 306 306 306 306 306 307 307 307 307 306 302 297 294 295 296 295 294 294 293 293 291 290 290 290 289
294 296 296 297 297 296 296 298 298 299 302 304 306 307 307 308 308 308 307 306 307 308 308 308 307 307 308 307 307 308 307 306 306 305 305 307 306 305 305 305 303 300 299 300 301 302 303 304 304 303 302 302 302 302 302 301 301 301 301 302 302 303 303 303 303 304 304 304 305 305 306 306 301 296 294 294 293 293 294 293 294 294 293 291 290 289 289 289
294 295 295 295 297 296 295 295 296 298 301 302 304 305 306 306 305 304 304 303 302 304 303 302 301 301 303 303 303 304 302 301 301 300 299 300 301 301 301 301 300 299 299 300 301 301 301 302 302 301 300 301 301 301 300 299 299 299 299 300 300 300 301 301 302 303 303 303 304 304 305 303 297 293 293 293 292 292 292 292 292 293 293 292 290 289 289 289
293 294 293 294 296 296 295 294 295 298 300 299 300 302 303 301 298 300 303 301 298 298 298 297 297 299 300 301 301 299 297 297 297 296 296 296 296 297 297 297 297 297 298 299 299 300 300 299 299 299 299 300 300 299 297 298 297 297 297 298 298 298 298 298 299 301 301 302 303 303 301 298 295 293 293 292 292 291 291 291 291 291 292 292 290 289 289 289
Wind_Speed
9 9 9 9 8 8 8 8 8 8 7 7 6 6 6 5 5 5 5 6 6 6 7 8 8 10 10 11 11 12 13 13 15 11 6 7 7 6 3 4 7 7 6 7 6 4 5 5 6 6 6 6 4 4 4 4 6 5 3 2 2 2 4 5 7 7 4 3 4 5 5 3 7 13 11 9 10 15 21 22 21 22 25 27 28 27 27 27
9 10 9 9 9 8 8 8 8 8 8 8 7 7 7 7 7 7 7 7 7 8 8 9 10 11 12 13 13 14 15 15 17 8 3 8 8 6 5 3 6 9 8 8 7 5 5 5 7 7 7 6 4 4 4 5 7 4 2 2 4 5 6 7 9 8 6 6 6 9 12 8 10 13 9 7 9 12 16 20 19 23 28 25 23 22 24 24
10 10 10 10 10 9 9 9 8 8 8 9 9 9 8 8 8 8 8 8 9 9 9 11 11 12 13 14 14 15 16 17 18 6 2 11 8 5 6 5 4 6 8 9 9 7 7 6 7 8 8 7 4 4 4 5 6 4 3 2 6 7 6 8 12 13 13 12 9 11 14 11 15 15 8 5 9 11 13 18 16 20 27 22 16 16 19 22
10 11 11 10 10 10 10 10 9 9 9 9 10 10 10 10 10 10 10 10 11 11 11 12 12 13 14 15 16 16 17 18 12 6 2 13 10 5 6 6 6 5 6 9 10 10 9 8 7 8 8 6 4 4 4 6 6 4 6 4 6 4 3 9 15 17 17 15 12 12 12 13 17 14 9 6 6 8 17 24 20 23 27 24 22 19 21 23
10 11 11 11 11 11 11 11 11 11 10 11 11 11 11 11 12 12 12 12 13 13 13 13 14 15 15 16 16 16 15 11 2 7 5 16 12 8 6 6 7 6 5 7 10 11 10 9 8 8 7 4 3 2 4 9 8 4 8 11 9 5 4 9 12 13 13 12 11 10 9 14 14 13 16 10 6 13 25 29 27 31 31 27 29 28 27 28
11 11 12 12 13 13 13 13 13 12 12 12 12 12 12 13 13 13 14 14 14 14 15 15 16 16 17 17 17 17 10 4 5 6 12 16 12 9 7 8 8 8 6 6 8 10 10 9 8 8 5 2 4 5 5 9 10 5 7 11 14 13 9 11 11 11 12 11 10 10 13 18 13 15 22 16 17 29 39 37 35 38 36 32 33 33 33 32
12 12 13 13 13 13 14 14 14 14 14 14 14 14 14 14 15 15 15 15 15 16 16 16 17 17 18 18 19 16 8 10 15 15 15 13 9 7 7 11 11 9 7 7 8 9 11 10 11 8 4 1 4 7 5 7 10 6 4 6 12 15 16 19 16 14 16 15 17 17 18 22 13 12 23 20 25 39 44 40 39 39 37 35 34 33 33 31
13 13 13 14 14 14 15 15 15 16 16 16 16 16 16 17 17 17 17 16 16 16 17 17 17 18 18 18 19 13 11 17 18 13 10 7 7 9 12 14 12 11 9 8 8 8 11 11 14 10 4 4 6 6 5 5 6 7 8 8 8 11 16 19 18 18 18 20 23 18 18 28 25 15 22 34 39 41 39 36 34 31 31 31 31 31 30 29
14 14 15 15 15 15 16 16 17 17 17 17 18 18 18 19 19 19 19 18 18 18 19 18 18 19 18 20 19 13 16 21 15 10 9 8 11 15 16 15 14 14 11 9 8 9 11 11 14 13 8 7 7 5 5 4 4 9 11 10 8 13 16 18 20 20 19 23 20 11 16 29 27 12 18 42 43 32 27 27 27 26 29 31 30 31 31 31
15 16 15 16 16 16 17 17 17 18 18 19 19 20 20 21 21 21 21 20 20 20 20 19 20 20 19 21 17 11 17 18 13 13 13 15 18 18 19 17 17 16 12 11 10 11 11 10 10 11 10 7 6 6 6 6 5 7 7 10 14 18 20 17 18 21 18 22 21 13 14 24 19 4 13 38 32 18 21 27 30 29 31 33 32 32 31 32
16 16 16 17 17 17 18 18 18 19 19 20 21 22 22 22 22 22 22 22 21 21 21 20 21 20 20 22 17 15 21 20 17 19 19 20 22 22 21 19 19 16 13 12 11 10 10 10 8 7 6 5 4 5 7 10 8 6 6 10 15 16 20 16 15 22 16 14 17 15 11 18 12 3 18 39 31 22 26 29 33 31 32 32 29 29 29 30
15 16 16 17 17 18 18 18 19 19 20 21 22 22 23 23 24 24 23 23 22 21 21 21 20 21 19 23 27 26 26 24 22 22 21 22 22 23 22 20 19 16 14 12 10 10 9 12 12 10 6 4 2 1 6 8 6 6 4 6 10 9 14 13 13 16 10 5 6 9 5 10 6 11 29 40 31 26 25 26 32 32 31 30 28 28 29 31
13 14 14 15 15 16 16 17 17 18 19 20 21 21 22 23 23 23 23 22 22 21 22 21 20 21 18 22 30 29 25 23 22 21 21 22 23 24 23 21 18 15 14 12 11 11 11 12 13 13 11 6 3 3 4 2 2 6 1 0 6 7 9 9 7 5 4 5 6 9 2 7 7 19 33 33 26 23 22 27 31 30 31 32 32 33 34 36
10 10 11 11 12 12 13 13 14 15 16 17 18 19 20 20 20 21 21 21 21 20 21 20 20 19 16 22 28 27 25 24 23 22 22 23 24 24 23 20 17 15 12 11 12 11 11 10 10 11 12 11 8 7 5 4 1 3 1 0 2 3 6 6 1 4 1 5 11 9 4 9 10 22 32 28 22 19 19 27 28 28 33 37 40 41 41 42
7 7 7 8 9 9 10 10 11 12 13 15 15 16 17 17 18 18 17 18 17 18 19 19 20 16 14 21 25 24 23 21 19 19 19 20 21 22 21 18 14 12 10 10 11 11 10 9 10 8 7 11 11 5 3 4 2 2 2 3 1 3 5 9 5 6 7 6 11 9 4 8 9 20 30 21 15 15 19 27 29 33 40 43 45 45 45 46
5 5 6 6 7 8 9 9 10 11 12 14 14 15 15 15 16 16 16 15 14 15 16 15 17 13 9 15 20 19 20 18 17 18 18 19 18 19 18 14 11 9 8 9 10 9 9 9 9 8 5 6 5 1 3 4 4 2 2 5 4 5 3 7 8 8 10 4 6 8 6 6 7 15 26 22 18 20 25 33 34 38 43 44 46 46 47 48
4 5 6 6 7 8 9 9 10 11 11 13 14 13 14 15 14 14 14 13 13 13 12 11 11 9 9 14 18 18 17 16 15 15 15 16 15 15 15 12 10 8 7 9 9 8 10 10 7 5 4 1 3 4 3 2 5 3 2 4 4 5 3 4 8 8 4 4 6 7 7 10 10 14 26 33 32 25 27 36 36 37 41 43 45 46 48 47
4 5 6 7 7 8 9 10 11 11 11 13 14 13 13 13 12 13 12 11 9 6 6 8 6 3 8 14 15 15 14 13 12 11 13 13 12 11 10 10 8 8 8 8 8 10 10 7 4 1 1 0 2 4 2 6 8 5 4 4 4 4 4 4 6 6 6 6 6 4 8 14 14 15 24 35 37 27 27 34 36 38 41 43 43 44 47 47
5 6 6 7 8 9 10 11 12 13 13 11 12 14 12 10 10 10 7 5 4 2 3 7 9 4 5 10 12 13 14 14 14 14 15 13 9 7 7 7 8 10 10 6 6 10 9 4 4 1 3 5 5 7 11 12 7 4 4 4 5 6 6 6 8 7 7 11 10 9 15 15 12 14 17 28 34 30 30 32 34 37 40 42 41 41 45 47
6 7 8 8 9 9 10 11 12 13 14 12 13 13 9 9 7 4 5 8 10 10 11 12 13 15 16 18 19 18 17 18 17 16 14 11 8 6 8 9 10 9 6 4 4 6 7 4 3 6 9 10 9 10 12 7 2 1 2 4 6 7 9 8 9 10 3 6 9 10 17 16 13 13 14 26 30 27 30 28 26 33 39 41 39 42 45 45
8 9 9 9 9 10 10 11 11 12 14 14 15 12 7 7 5 4 10 14 16 16 19 21 21 24 25 26 24 22 18 16 16 15 12 9 7 7 9 10 7 4 2 4 4 2 5 5 7 12 10 6 5 5 5 4 4 5 5 6 6 6 11 9 9 11 3 2 5 7 15 17 14 14 15 23 23 21 26 20 20 30 38 41 41 41 40 39
11 10 10 10 11 11 11 12 12 11 12 13 13 11 8 9 7 8 10 12 18 22 21 23 26 29 29 29 30 28 19 13 13 13 10 9 10 8 9 8 4 3 2 3 4 2 2 4 11 15 6 2 2 4 3 4 5 5 4 4 5 4 8 8 7 8 1 1 6 8 14 14 14 18 18 21 19 21 28 24 26 32 35 42 40 31 31 36
12 12 10 11 12 11 12 13 13 12 11 11 11 10 9 10 10 12 10 7 15 21 21 23 25 28 28 28 30 28 20 15 13 12 11 11 12 9 9 8 4 3 3 4 6 4 3 6 13 14 6 3 3 2 3 3 3 5 4 4 6 5 5 6 5 5 3 4 7 10 14 11 12 16 14 17 18 22 32 32 34 38 37 40 36 29 32 36
14 14 13 12 13 13 13 13 13 11 10 10 10 9 9 11 11 14 12 6 7 12 19 22 18 19 22 21 20 19 17 15 11 9 12 14 12 8 8 8 5 3 5 8 9 6 6 6 5 4 5 7 7 4 3 5 5 5 6 5 9 10 9 9 5 6 6 5 4 7 12 7 5 6 5 8 9 13 23 27 33 34 24 24 29 30 31 29
17 16 15 14 14 13 13 13 11 8 9 10 10 9 10 12 12 14 11 4 4 6 11 13 7 8 11 10 10 10 9 11 11 9 11 15 15 7 4 7 5 4 6 7 5 6 7 8 4 4 3 5 5 6 6 7 5 4 5 11 15 13 11 10 6 7 5 4 3 6 8 6 1 1 4 5 3 7 13 18 24 19 12 15 23 26 25 22
19 18 17 16 14 12 12 12 9 7 8 10 9 9 10 11 12 13 8 2 4 4 4 5 3 2 4 2 3 7 4 4 8 11 12 14 16 9 3 4 4 3 5 5 2 3 4 5 2 5 4 6 5 6 6 8 4 5 5 10 13 11 9 9 6 3 0 3 3 3 2 7 3 3 7 6 3 10 13 12 13 15 18 22 24 26 23 16
19 18 16 14 12 11 11 10 8 7 9 10 9 8 9 10 10 10 6 2 4 2 3 3 3 2 2 2 6 8 2 2 2 7 13 14 13 10 5 3 2 2 4 4 1 3 4 1 5 5 5 6 5 6 6 9 5 5 4 4 6 7 7 6 3 3 3 3 4 1 3 6 8 5 5 3 5 11 14 10 10 14 19 21 21 21 16 16
19 17 15 13 11 11 11 10 9 8 9 10 9 8 7 8 8 6 3 2 3 2 3 2 3 1 2 5 8 5 1 1 2 2 10 13 12 8 5 6 5 4 4 5 3 4 4 5 5 6 5 4 6 5 7 11 5 5 3 5 5 4 4 4 3 3 2 3 4 2 4 3 9 4 1 1 5 9 11 9 9 12 15 16 15 14 15 19
20 18 16 14 13 13 12 11 10 8 9 9 9 8 7 7 6 4 3 2 2 3 2 1 2 1 2 5 5 2 2 1 1 2 7 10 11 5 2 5 5 3 3 3 5 5 1 3 7 8 6 6 7 4 8 11 5 3 5 5 4 3 3 4 3 2 2 3 4 5 5 4 10 4 3 1 3 6 7 6 6 10 15 15 11 15 19 22
19 18 16 15 15 15 15 12 10 9 9 9 9 8 7 6 3 3 2 3 2 1 1 2 1 1 2 3 1 2 1 1 2 5 4 4 8 5 1 2 2 3 1 3 4 5 1 3 2 5 6 6 5 2 3 7 5 4 6 4 5 4 4 3 1 3 1 5 5 9 10 5 6 4 3 3 3 5 4 4 6 10 16 15 12 19 24 25
17 16 15 15 14 15 15 13 11 10 10 10 9 7 6 4 3 3 6 2 2 1 1 1 1 1 3 2 1 1 0 1 2 5 3 2 3 3 1 0 1 3 3 4 4 4 1 2 1 5 8 5 6 3 1 2 4 5 4 3 3 3 3 4 4 3 1 6 4 6 7 6 6 5 1 4 6 6 3 5 9 10 15 19 18 22 24 27
15 14 13 13 14 14 14 13 10 9 10 11 9 5 2 2 1 4 3 3 2 2 1 1 1 1 2 1 1 3 1 1 3 4 3 2 2 3 3 4 3 1 4 2 3 4 1 5 3 3 5 7 6 2 2 3 3 4 3 3 1 3 3 3 3 1 3 7 4 2 2 4 9 7 3 9 13 9 6 6 10 9 14 18 20 21 23 27
16 15 14 13 14 14 14 13 11 11 11 9 7 2 3 2 4 2 1 2 2 1 1 1 1 2 2 1 2 3 1 2 4 3 3 3 1 3 5 5 5 1 3 3 2 3 3 4 2 0 4 9 10 5 2 2 4 6 5 5 3 1 1 3 3 2 4 5 3 1 2 3 8 6 7 12 14 9 4 5 10 11 13 13 16 19 24 27
18 17 16 15 15 15 14 14 13 12 10 9 8 4 2 7 5 2 3 5 3 1 1 2 3 2 1 2 3 2 2 3 3 3 2 2 1 3 5 5 5 3 1 2 1 2 4 7 4 5 3 9 12 8 5 4 5 6 4 5 4 4 4 4 3 4 6 4 2 2 2 4 4 3 5 10 8 8 8 9 10 10 8 7 14 21 25 24
20 20 19 19 18 16 15 15 15 12 10 10 6 2 6 7 2 1 4 4 2 3 3 1 3 2 2 2 4 2 4 4 1 4 2 2 3 4 3 4 5 5 3 2 2 2 4 8 6 3 2 10 10 4 5 6 2 3 3 4 2 4 5 3 4 5 3 3 3 2 3 5 4 6 9 8 6 7 7 6 7 11 12 14 21 25 24 24
21 21 21 22 20 16 14 16 16 14 13 10 4 4 8 5 3 4 3 1 1 1 2 3 2 0 4 3 3 2 2 3 0 1 3 3 3 5 4 3 6 9 6 4 3 2 4 7 3 2 1 7 7 2 3 3 2 2 3 3 4 4 5 2 5 1 1 4 5 4 6 6 4 10 9 0 2 4 6 7 11 16 19 23 27 27 25 26
21 22 22 23 20 15 14 15 16 17 16 10 4 7 5 3 6 6 2 2 1 2 2 2 2 2 3 3 2 3 0 1 1 1 2 2 3 4 5 4 6 11 10 6 3 4 4 6 3 3 3 5 3 1 2 1 4 5 3 4 2 2 3 2 2 2 1 7 5 5 11 9 4 8 6 3 2 4 5 6 10 17 22 24 26 26 26 28
20 20 21 21 18 14 14 15 16 19 15 7 7 10 4 3 6 6 4 3 1 1 2 3 4 2 2 3 3 2 2 1 1 1 2 2 3 4 4 4 4 7 8 4 1 3 2 4 5 2 3 2 2 2 2 2 2 4 2 2 2 2 2 1 2 2 4 8 5 6 11 9 6 9 8 10 10 4 6 8 10 14 19 21 22 24 26 28
16 14 14 13 12 15 17 16 19 21 13 4 8 9 4 4 6 7 8 5 1 1 2 4 4 2 2 3 3 2 2 3 2 1 2 3 4 3 3 2 2 1 3 4 3 2 1 2 4 1 1 0 3 1 3 2 1 2 1 2 1 3 3 2 3 2 4 8 7 7 9 6 6 6 7 11 8 8 8 8 9 10 15 20 21 24 26 29
11 7 5 6 8 15 21 20 21 19 8 5 9 7 2 2 4 7 10 7 4 3 3 4 4 4 4 3 3 3 2 4 4 3 3 2 3 3 1 1 1 1 2 2 2 1 2 2 4 1 2 1 1 4 6 6 4 2 1 3 2 2 1 1 2 2 3 7 7 7 8 6 4 3 5 7 8 10 9 9 8 11 18 22 24 27 29 31
9 3 3 7 8 16 26 21 15 11 4 6 8 6 3 3 3 3 6 9 8 6 4 3 4 4 3 2 3 2 1 3 4 3 4 3 3 4 1 1 1 1 2 3 1 2 0 2 3 2 3 4 5 6 6 7 6 5 4 5 5 5 3 4 5 4 3 5 5 7 8 5 3 5 7 6 10 9 10 10 8 13 20 23 25 27 28 29
10 2 3 8 8 19 27 15 7 6 4 6 6 4 4 4 4 4 4 6 7 5 3 2 2 3 2 3 4 2 2 3 3 4 4 4 6 6 3 5 3 1 1 1 3 3 2 2 3 6 6 6 8 6 5 6 4 3 3 3 3 3 3 6 7 4 3 4 4 6 7 3 3 4 3 8 11 10 12 14 11 13 18 21 23 24 25 26
9 5 6 8 10 22 23 7 5 6 3 6 6 6 5 4 2 2 2 3 4 3 2 2 3 4 4 4 5 4 4 4 5 7 6 4 5 3 4 6 3 2 1 2 2 0 2 2 2 5 4 4 7 6 1 2 2 1 2 3 3 4 5 7 6 3 3 5 5 7 7 3 2 3 4 12 14 13 16 16 13 13 16 19 22 23 24 25
8 7 9 10 14 23 17 4 5 6 4 6 6 8 9 7 5 5 3 3 4 2 1 2 3 5 4 2 2 3 4 3 5 6 4 4 4 2 7 6 2 1 1 1 2 2 1 1 2 3 3 3 5 6 4 3 1 1 3 3 3 4 6 5 3 2 3 5 7 8 6 2 2 4 5 9 11 11 12 14 14 14 14 17 19 21 23 25
5 5 7 13 21 22 12 3 4 5 5 6 6 8 9 7 7 10 8 5 6 5 2 3 3 3 2 1 0 2 3 3 3 3 1 2 3 1 7 8 4 2 2 3 2 1 1 2 2 4 5 5 6 6 3 2 1 1 2 4 3 3 5 4 3 4 4 6 8 8 7 4 3 7 7 6 7 7 8 10 11 12 12 14 16 19 21 23
3 2 3 8 16 17 10 5 4 4 4 5 5 6 9 9 7 8 6 6 9 9 7 6 3 2 3 3 3 5 6 6 5 3 3 4 3 1 4 5 5 4 3 5 5 2 0 2 4 7 9 9 9 8 4 4 5 5 6 7 7 7 6 4 4 5 6 7 7 8 10 10 9 10 7 4 5 4 5 5 6 9 11 13 15 17 19 22
2 1 2 3 7 10 9 7 4 3 3 3 3 4 8 9 6 4 5 6 5 6 5 6 5 4 4 4 4 6 6 7 7 6 7 6 3 2 3 2 5 4 2 2 5 2 1 2 5 9 11 10 10 11 9 8 9 9 10 11 12 11 9 9 10 10 9 9 8 9 11 12 11 9 4 3 4 2 4 3 4 6 9 12 15 18 21 23
2 1 3 4 2 3 4 5 3 2 4 4 2 3 6 6 4 3 3 2 1 3 3 3 4 7 7 6 5 4 4 5 4 4 3 2 1 2 3 2 4 6 3 2 4 3 2 4 6 9 11 10 11 11 8 6 7 7 8 10 11 12 12 13 14 13 11 11 11 11 13 16 13 6 2 3 3 2 2 2 3 5 8 10 13 16 19 22
2 1 1 2 2 0 1 1 3 2 4 4 2 3 6 7 9 6 1 2 3 2 3 4 5 5 6 6 4 3 3 4 4 4 3 2 3 2 1 2 1 6 7 4 3 1 2 3 5 6 7 8 9 9 7 7 9 10 10 10 11 14 16 16 16 15 14 16 16 15 18 18 10 1 6 5 3 2 2 0 3 5 7 9 12 15 17 18
2 1 0 0 0 0 0 1 2 3 2 4 4 5 6 8 10 6 1 2 5 4 2 4 7 4 2 3 4 5 3 1 4 6 1 2 2 2 1 3 1 4 5 2 2 3 2 3 3 3 4 7 9 10 9 9 10 11 11 11 14 17 17 17 17 16 16 17 16 16 18 13 2 4 4 5 4 2 1 2 5 6 5 8 12 15 17 19
3 2 1 1 1 1 2 0 1 2 1 3 4 4 5 6 5 2 1 1 1 0 2 2 5 5 1 0 2 2 0 4 3 2 2 1 4 3 2 0 1 2 3 1 1 3 3 3 4 4 4 7 9 10 10 10 11 11 12 16 20 19 16 15 15 14 13 13 13 13 11 5 3 3 1 3 3 1 1 3 7 7 5 6 11 15 19 20
4 3 2 1 0 1 3 2 1 3 2 2 2 2 2 1 2 2 0 3 8 8 6 6 4 4 2 2 1 2 3 3 1 3 6 7 8 8 8 7 6 4 2 0 1 2 2 2 3 4 5 7 9 8 4 6 9 11 11 14 17 17 16 15 14 13 9 6 8 9 5 1 3 3 2 1 1 1 2 5 10 10 8 7 10 15 20 21
Wind_Direction
325 327 328 329 330 330 329 329 329 329 331 330 332 334 334 336 338 338 338 338 339 340 340 340 340 340 341 341 342 342 340 338 338 342 10 30 24 9 333 262 242 232 234 229 233 244 243 244 235 224 213 207 208 201 180 181 170 158 112 114 220 206 201 188 188 200 184 255 267 260 287 299 294 301 302 298 270 270 279 272 268 267 266 270 276 281 281 282
318 320 321 321 322 321 321 320 319 318 317 318 319 320 320 321 320 322 323 323 325 327 330 329 330 332 333 334 335 336 336 334 330 325 44 20 4 9 11 316 260 246 241 235 239 247 243 251 242 230 215 208 218 207 194 194 179 162 111 144 226 209 204 196 200 208 208 254 267 278 294 291 282 291 298 289 270 278 283 277 272 269 274 276 275 279 281 281
313 314 314 315 314 313 312 310 311 309 308 309 307 309 309 308 309 309 311 312 314 316 319 320 321 324 325 327 328 332 335 331 322 280 117 12 359 351 3 1 315 267 251 240 237 240 236 236 235 231 221 216 221 203 196 193 191 193 150 192 241 220 221 223 229 237 244 263 278 287 292 282 281 287 278 259 280 283 269 273 271 267 281 291 286 280 281 281
305 306 307 307 306 305 304 304 304 303 303 302 300 302 300 302 302 302 304 304 307 308 311 314 315 318 320 322 324 328 334 330 314 204 204 350 349 328 339 353 351 324 272 248 240 242 238 230 228 226 222 225 228 213 211 203 200 189 167 205 232 196 232 241 245 258 261 266 270 279 291 287 288 285 256 248 296 280 261 272 274 274 285 295 295 289 283 281
298 300 300 300 301 300 300 300 300 299 298 297 296 296 295 296 296 297 299 299 302 304 306 308 309 313 313 315 318 322 337 341 279 174 293 328 330 311 310 327 345 346 308 263 246 243 240 236 229 219 217 228 203 191 232 212 195 189 208 230 236 202 243 261 260 271 272 268 268 276 286 288 294 285 263 237 224 265 274 282 284 285 287 289 291 290 284 281
294 295 295 296 297 297 298 298 298 297 295 294 293 292 292 291 291 292 292 295 297 298 300 302 304 306 307 309 310 313 325 316 266 269 301 311 308 296 291 306 326 335 319 282 259 245 239 230 219 209 201 229 201 197 232 208 196 229 243 236 246 240 247 270 268 271 278 274 269 272 281 287 296 295 280 235 223 270 285 287 287 289 288 286 287 285 284 283
292 292 292 293 294 295 296 296 296 295 294 293 292 291 290 289 289 288 289 291 292 293 296 297 299 300 302 303 303 305 283 271 292 297 300 300 291 284 290 301 307 315 311 286 269 247 239 223 212 204 182 252 221 212 233 214 202 229 271 244 251 250 252 267 270 271 276 273 274 279 285 285 279 291 292 262 247 274 289 292 290 291 290 286 285 285 285 285
291 292 292 292 293 294 294 295 294 294 295 294 293 292 290 289 288 289 289 290 290 291 292 293 295 295 298 298 299 297 266 283 303 300 295 293 281 287 293 296 296 302 301 281 272 252 241 224 215 209 196 231 218 208 218 229 216 213 248 257 259 260 261 272 277 276 276 276 278 279 274 275 272 276 285 276 271 278 289 296 293 292 292 288 286 289 288 287
291 291 291 292 292 293 293 293 294 294 294 293 293 291 290 290 288 289 288 288 289 288 289 290 290 291 293 292 294 287 275 290 301 291 292 291 289 291 290 291 290 293 289 274 263 247 239 228 224 221 226 230 215 218 195 208 236 213 233 261 275 275 276 281 279 277 279 277 271 258 260 268 275 282 272 274 278 282 289 295 294 293 295 293 293 294 293 290
289 290 290 291 291 291 291 292 292 292 292 291 291 290 289 288 288 287 287 287 287 285 286 285 285 287 286 286 286 276 282 292 291 289 293 290 289 286 285 286 286 286 281 270 257 250 248 244 241 228 237 242 220 223 188 188 236 235 254 281 280 281 286 282 276 275 274 272 257 223 251 265 271 294 264 274 280 284 287 293 294 292 294 296 296 297 297 294
286 288 289 289 290 290 290 291 291 290 289 289 288 288 288 288 287 286 286 286 285 285 284 283 284 283 282 283 270 261 282 289 285 288 288 287 286 281 281 279 279 279 272 268 260 259 255 244 233 204 222 237 220 224 216 224 245 276 308 300 287 293 296 280 267 272 261 267 256 219 247 274 273 206 250 271 280 281 284 290 293 292 292 293 293 294 296 293
285 287 287 288 289 289 290 290 290 289 289 288 288 288 288 288 287 287 287 286 285 284 283 282 282 281 283 280 267 267 283 285 282 284 281 281 280 277 278 274 273 273 268 267 259 253 242 234 224 210 221 216 208 250 234 232 245 290 323 305 297 321 308 272 252 265 236 241 252 187 241 284 250 222 253 271 281 282 284 286 289 290 289 288 288 290 290 290
286 286 287 287 288 288 290 290 290 291 290 289 289 288 288 287 287 287 286 285 283 281 279 279 277 278 279 274 272 277 284 282 279 279 276 276 275 274 273 271 270 267 264 259 251 242 229 230 226 226 239 228 228 253 251 257 260 287 324 298 307 331 311 269 232 244 212 220 182 149 250 272 243 247 262 276 280 281 284 281 283 285 286 288 289 289 287 286
291 291 292 292 292 293 293 295 296 296 295 294 293 292 291 290 289 288 286 284 281 277 275 272 271 271 266 268 277 283 282 281 281 277 275 274 272 272 271 270 270 266 262 252 245 239 225 223 217 225 238 234 240 256 279 341 339 288 313 137 315 285 285 297 194 136 273 241 174 160 263 253 260 268 272 281 279 280 282 279 283 284 287 289 289 289 287 287
301 303 304 301 302 302 303 306 306 307 305 302 302 300 298 297 294 291 289 286 282 277 273 267 264 262 262 271 278 282 282 282 281 278 275 271 269 271 271 271 268 261 253 241 235 229 218 205 199 208 229 235 239 257 321 351 1 8 290 279 270 210 267 308 299 191 239 253 169 169 256 256 260 271 277 287 287 289 286 284 288 288 288 289 289 289 287 288
314 316 315 317 319 318 321 322 320 321 317 312 312 310 306 304 300 296 293 288 283 276 269 263 261 252 256 278 278 277 281 283 282 279 275 273 269 266 267 266 261 250 236 226 222 214 200 187 193 205 221 236 220 145 33 354 324 342 229 250 247 240 279 317 302 244 234 234 177 204 242 268 262 270 284 293 291 293 292 288 287 286 287 288 288 289 287 287
324 327 329 334 334 334 334 333 332 331 328 322 317 318 315 311 306 301 296 291 285 273 263 256 253 246 249 266 272 275 280 284 283 279 276 276 269 262 260 253 243 231 211 201 198 187 181 179 180 207 228 238 119 101 36 313 273 283 232 238 240 247 270 301 299 297 274 190 204 237 240 254 266 279 286 288 288 289 284 283 285 285 286 286 286 286 286 285
325 332 336 337 339 342 338 337 337 335 338 333 325 327 323 313 309 303 299 294 282 267 257 233 201 219 256 250 258 274 285 285 282 282 281 277 268 258 248 238 227 201 178 172 179 174 176 175 153 192 297 19 111 115 187 238 239 249 246 259 283 265 249 254 266 303 319 263 236 274 261 255 267 277 280 283 286 283 273 278 283 283 282 283 283 282 284 285
311 319 326 329 333 336 334 336 339 337 341 341 336 337 330 320 316 304 299 290 258 236 254 217 189 195 260 254 263 279 285 281 280 281 277 273 264 242 216 208 196 175 161 152 181 178 168 133 97 127 241 220 200 176 208 231 233 240 236 245 278 282 256 241 251 263 291 286 277 274 272 269 271 274 276 281 284 281 274 273 276 280 281 281 281 281 283 284
291 303 309 316 321 326 328 332 338 340 340 343 348 348 344 342 335 307 300 292 275 269 271 257 242 247 261 270 275 278 277 275 276 274 268 264 249 211 181 170 166 169 166 155 184 183 164 149 157 209 226 222 216 207 223 255 346 313 262 262 264 275 273 261 266 265 241 281 273 259 274 280 278 277 277 279 282 279 274 271 272 278 280 280 281 281 282 284
278 286 295 302 310 316 320 326 335 341 340 344 353 359 6 5 354 312 312 303 291 283 278 275 264 257 263 269 269 268 268 272 271 263 260 247 208 182 176 161 148 176 214 144 133 124 149 178 216 225 229 219 210 208 232 274 308 271 258 277 272 256 270 270 271 273 242 242 260 249 272 281 282 278 270 271 272 267 270 277 277 275 278 280 279 280 283 288
275 277 285 294 301 308 311 319 328 335 341 344 349 1 9 359 338 320 319 299 292 292 285 277 266 260 262 261 258 258 257 263 263 252 246 218 190 190 182 158 147 190 184 126 110 87 150 212 238 237 230 88 69 89 130 220 239 249 247 282 283 261 278 276 263 284 333 219 271 280 280 282 278 270 261 258 257 265 274 276 272 269 272 274 276 283 289 292
272 271 274 285 294 300 302 312 320 325 335 339 344 356 358 348 338 331 326 280 286 295 285 272 262 259 260 256 254 253 245 244 254 247 238 214 193 197 181 159 161 164 158 187 183 178 202 237 244 240 211 175 251 121 124 266 245 226 236 271 276 267 280 271 265 316 342 253 276 296 289 281 268 266 264 260 255 262 269 270 269 265 262 267 276 287 288 290
269 268 269 274 284 290 294 305 315 319 326 333 339 344 345 343 341 337 328 277 272 289 275 267 260 256 260 258 254 248 236 236 244 241 229 212 195 191 188 173 156 160 202 207 203 213 237 245 235 213 174 185 230 244 227 261 257 228 220 228 255 258 252 251 280 344 330 287 302 316 301 285 248 258 275 273 259 254 262 265 265 265 265 274 283 287 287 294
266 268 271 273 277 282 288 299 308 313 320 326 327 331 343 344 343 344 337 301 282 275 255 258 263 254 253 257 249 228 222 230 230 223 212 204 196 180 176 178 164 208 216 193 207 249 262 254 206 124 115 155 191 241 227 216 245 272 225 217 238 254 257 261 297 357 354 311 345 4 325 299 188 201 275 288 315 283 262 253 258 273 301 295 286 289 296 306
263 265 270 275 279 282 286 295 299 304 316 323 324 329 339 341 346 347 349 7 301 266 213 226 242 223 215 227 202 179 182 239 223 214 204 199 198 183 155 171 164 220 196 158 177 241 253 264 182 140 125 121 159 242 226 185 214 287 244 215 228 247 262 269 291 340 313 258 306 43 353 285 271 203 252 262 276 273 261 255 274 292 295 288 289 296 305 324
264 266 270 274 278 281 281 284 291 303 309 316 326 328 331 340 349 350 357 0 294 230 140 175 189 200 227 195 164 159 178 258 170 197 197 193 196 191 199 205 162 208 175 141 270 239 203 108 70 105 119 126 173 243 217 161 166 260 250 185 197 225 243 242 235 240 243 280 313 35 138 278 282 233 240 214 189 251 263 274 294 289 286 292 300 308 329 3
265 266 268 267 264 267 274 279 290 303 300 306 320 314 322 340 341 355 39 312 297 110 111 157 140 137 212 172 170 157 62 166 119 183 190 189 194 188 223 227 187 198 177 151 226 249 172 160 157 137 117 163 201 215 182 157 171 248 211 125 148 186 199 169 159 208 279 340 311 277 138 262 280 262 43 96 201 249 268 273 286 294 303 310 316 339 6 17
263 262 263 263 257 256 264 271 274 282 287 298 309 304 316 329 334 26 90 235 318 68 110 176 132 95 111 137 183 209 30 43 90 154 173 187 199 186 264 242 180 184 213 181 229 251 170 166 180 152 141 208 212 205 173 163 188 217 135 94 78 77 76 94 122 124 36 319 258 212 172 246 283 280 105 59 263 259 263 266 278 305 319 325 348 14 15 24
263 262 261 259 256 251 255 260 260 266 277 291 299 302 310 317 13 76 205 238 342 22 130 167 207 279 106 105 282 278 275 312 102 133 138 166 200 209 300 274 122 118 279 316 275 251 214 79 128 174 200 205 160 137 170 161 158 124 105 56 40 40 42 56 47 88 53 290 237 197 190 199 285 299 154 189 234 227 251 312 301 308 316 316 347 13 22 42
265 265 260 256 252 250 254 259 260 259 263 275 288 297 300 316 73 163 228 272 351 290 103 141 288 41 110 118 292 266 202 276 142 144 136 107 181 222 354 299 99 73 1 327 291 276 174 124 230 234 222 178 108 88 26 88 112 101 83 47 28 344 12 28 351 46 155 264 253 208 194 185 240 266 238 266 269 231 213 314 303 304 300 303 340 16 40 59
268 267 263 256 251 248 250 257 259 255 259 263 263 276 308 309 224 204 240 0 343 266 122 209 273 93 114 64 252 226 173 222 183 154 160 142 160 200 200 194 174 347 318 261 279 320 249 214 247 279 226 182 133 92 2 21 84 108 105 105 34 318 352 358 313 63 214 250 272 238 179 214 246 251 262 277 279 262 216 250 279 288 291 314 357 32 53 52
274 273 271 263 257 252 247 251 253 251 257 245 217 163 83 231 240 189 171 279 249 227 113 153 82 110 135 62 270 234 189 209 188 175 173 141 163 248 246 220 172 196 266 214 311 323 287 277 227 244 256 191 163 162 223 243 169 158 157 155 154 178 226 275 260 259 273 271 302 273 172 259 280 274 239 245 265 282 281 268 279 293 303 334 23 42 42 36
274 275 273 267 264 258 248 244 240 240 242 215 174 119 169 231 245 112 178 230 245 323 357 105 73 28 130 200 251 207 203 249 165 155 179 115 143 265 268 247 191 155 198 208 293 210 255 293 217 189 230 175 177 196 182 140 154 177 162 145 158 169 190 234 230 252 276 280 313 306 187 229 268 282 240 239 272 311 314 300 304 319 331 25 44 37 33 32
272 273 271 268 265 257 249 238 231 232 223 195 157 134 221 230 249 185 213 233 270 310 314 57 91 353 299 252 276 240 203 248 98 118 182 171 196 223 228 236 196 155 147 216 259 162 216 267 246 222 141 159 180 210 137 106 130 199 122 117 199 193 177 229 246 236 256 276 275 243 230 231 238 283 280 261 280 314 317 329 19 42 58 56 40 38 40 40
270 269 266 265 261 255 249 234 229 230 212 184 164 225 229 225 190 198 206 188 193 176 306 317 102 214 283 267 307 329 172 210 199 116 215 214 233 228 221 238 194 174 174 190 228 221 236 265 272 34 90 183 188 187 135 140 188 165 120 181 221 171 144 208 278 294 78 259 249 210 252 277 292 288 290 235 98 14 8 27 51 49 47 43 39 45 49 45
268 265 262 261 258 254 244 226 219 221 205 182 210 232 227 220 196 197 183 135 171 129 122 273 214 182 255 263 291 315 30 220 233 181 227 245 254 211 209 251 202 188 202 202 221 242 247 273 260 148 216 237 204 122 31 57 138 134 172 213 197 118 117 126 268 335 293 252 248 215 250 271 281 279 306 16 337 6 22 23 35 28 28 38 46 49 47 46
263 262 261 261 257 242 225 213 207 207 194 176 238 238 227 224 204 192 187 176 200 64 123 225 238 202 217 243 262 242 175 210 242 183 214 251 251 184 171 250 208 193 223 208 197 261 238 279 276 184 194 240 66 58 333 339 140 146 203 234 118 172 229 131 176 233 245 253 255 221 239 251 248 261 284 284 286 351 30 21 31 28 25 34 43 43 41 43
253 255 261 262 248 221 206 198 196 195 186 179 236 236 225 233 226 211 210 205 161 145 205 230 233 243 229 211 230 239 199 194 198 230 218 226 246 198 151 248 223 223 257 172 183 270 86 236 269 8 151 140 57 99 214 244 302 52 8 310 64 176 200 179 176 178 228 253 260 241 235 231 227 241 267 280 310 29 46 37 39 38 35 35 36 38 37 38
229 230 249 226 209 199 189 186 189 189 188 215 226 227 205 227 239 222 219 221 205 194 231 230 205 229 250 226 228 252 230 199 189 209 227 224 271 271 230 220 179 33 21 112 194 281 60 230 246 7 354 285 179 211 198 198 207 156 193 241 241 213 199 244 230 176 216 248 255 252 244 234 233 257 284 308 11 50 63 62 44 30 35 34 33 34 33 34
191 189 230 194 189 184 176 176 190 193 202 229 229 238 235 245 265 238 223 220 220 223 222 199 195 220 244 252 251 238 211 224 204 204 236 245 263 266 289 30 157 166 52 52 253 235 170 240 235 251 269 244 242 233 199 188 179 164 188 208 216 222 231 264 248 210 213 242 245 255 257 246 243 284 303 358 51 60 60 69 58 34 33 32 32 35 34 33
176 159 189 181 181 177 171 173 204 202 206 223 231 247 238 255 264 249 233 210 212 233 238 218 218 222 231 252 259 244 225 245 224 221 246 242 228 235 309 351 355 163 171 270 241 213 144 136 229 245 243 248 265 257 190 175 162 152 205 217 228 231 221 243 250 235 222 237 243 257 262 243 203 251 316 58 74 66 60 70 68 44 37 34 34 34 33 32
174 166 164 166 177 177 172 182 225 200 225 241 247 262 250 263 267 233 229 199 202 220 223 238 232 225 233 238 237 234 228 227 223 227 237 239 236 249 337 333 340 55 5 278 266 309 92 114 247 256 263 286 292 288 222 126 130 200 236 214 216 242 244 244 251 266 252 242 250 258 259 270 303 306 64 86 88 75 65 67 66 51 38 35 36 34 31 27
175 174 163 158 174 181 180 203 216 203 236 238 242 256 252 256 257 250 247 194 197 187 169 243 233 226 243 240 220 234 231 233 246 243 230 237 253 21 29 3 349 103 15 252 262 307 347 229 261 284 292 308 300 292 319 1 11 219 242 239 228 245 268 281 285 287 262 226 235 256 259 248 325 334 19 70 83 81 74 71 72 63 45 38 36 33 30 25
156 183 187 176 182 192 202 222 205 209 231 235 244 249 250 256 252 250 252 230 216 207 222 262 227 204 251 261 116 254 220 200 249 281 299 263 265 14 32 23 39 86 59 61 51 338 287 242 253 277 271 264 270 269 273 310 277 238 287 307 317 245 245 283 290 261 254 231 230 253 267 260 296 309 319 13 55 82 89 82 79 71 56 46 38 32 29 25
125 179 215 196 201 214 233 235 209 203 210 230 245 241 243 251 255 250 245 243 234 221 230 246 211 182 251 232 234 260 245 211 212 248 272 266 267 335 31 42 64 93 111 73 51 47 289 255 234 249 257 259 271 276 284 299 277 270 281 288 290 269 246 256 260 245 264 272 255 255 267 274 283 287 295 14 45 64 82 80 77 68 55 43 33 26 23 20
121 193 149 178 224 239 247 250 245 229 232 240 223 224 236 240 256 256 227 230 226 206 223 240 212 205 225 219 230 253 250 232 221 233 253 253 252 314 342 26 44 49 119 69 35 74 189 265 239 246 257 261 273 280 288 294 281 275 280 278 278 276 263 251 252 255 273 281 264 255 265 271 273 274 289 42 45 68 88 86 73 55 42 33 26 19 14 11
133 184 138 139 213 238 233 249 270 265 267 269 237 251 254 243 250 248 228 254 241 182 212 249 222 215 221 230 241 243 242 240 224 209 231 252 254 326 341 13 48 45 66 38 25 86 171 264 257 260 271 273 280 288 293 296 287 281 282 282 284 283 271 262 262 267 269 265 265 272 272 270 272 267 127 70 37 79 106 80 44 27 19 22 19 13 10 7
158 189 163 172 214 170 147 293 358 1 272 264 261 262 255 253 257 247 205 359 303 227 210 239 244 227 218 228 231 223 240 260 268 250 205 195 215 211 308 282 63 51 53 43 354 355 188 256 263 270 284 285 284 288 294 296 291 285 281 279 276 271 267 267 269 269 262 257 263 270 268 268 275 146 121 100 57 90 129 318 333 345 357 10 10 7 5 1
142 157 213 104 336 41 67 307 9 30 295 256 249 254 247 249 259 257 206 253 265 258 224 250 277 279 225 215 216 224 238 262 292 288 247 177 230 192 197 230 191 26 21 36 313 304 273 276 316 341 306 288 283 283 289 292 288 287 287 280 269 262 261 263 265 265 262 262 263 262 263 265 279 94 115 105 78 76 118 286 287 296 329 355 358 357 355 352
180 184 194 56 38 177 159 152 120 117 257 233 218 242 248 247 259 285 58 86 169 134 96 38 335 338 12 269 233 236 342 96 113 336 9 332 292 312 325 260 90 5 334 179 241 310 299 296 337 341 289 273 279 286 295 305 299 288 275 266 262 259 258 257 258 258 260 265 268 266 267 261 125 99 84 104 86 15 312 311 302 293 300 334 347 348 347 343
208 219 215 157 308 197 149 113 118 162 205 221 209 239 229 181 44 42 210 95 95 96 81 60 25 9 14 320 298 81 28 28 34 324 323 304 291 290 283 276 274 263 240 194 283 258 247 267 288 285 274 275 280 288 322 341 306 282 262 254 254 256 257 257 260 263 263 267 271 270 271 183 138 108 49 22 349 313 283 314 320 307 291 306 331 337 336 333